Location: Mabank
(32.3664°N, 96.1006°W)
Time: 20:03:06
(UTC-06:00)

Hubble Space Telescope - Visible Passes

Search period start: 19 November 2017 00:00
Search period end: 29 November 2017 00:00
Orbit: 537 x 541 km, 28.5° (Epoch: 18 November)

Date Brightness Start Highest point End Pass type
(mag) Time Alt. Az. Time Alt. Az. Time Alt. Az.
19 Nov 2.0 04:54:49 34° SSE 04:54:49 34° SSE 04:58:19 10° ESE visible
19 Nov 1.5 06:31:30 10° WSW 06:35:30 49° S 06:39:30 10° ESE visible
20 Nov 2.3 04:45:22 32° SE 04:45:22 32° SE 04:48:09 10° E visible
20 Nov 1.5 06:21:17 10° WSW 06:25:16 48° S 06:29:16 10° ESE visible
21 Nov 2.8 04:35:52 26° ESE 04:35:52 26° ESE 04:37:58 10° E visible
21 Nov 1.5 06:11:14 11° WSW 06:15:02 46° S 06:19:00 10° ESE visible
22 Nov 3.3 04:26:19 20° ESE 04:26:19 20° ESE 04:27:46 10° E visible
22 Nov 1.6 06:01:41 15° WSW 06:04:47 43° S 06:08:43 10° ESE visible
23 Nov 3.7 04:16:45 15° ESE 04:16:45 15° ESE 04:17:33 10° ESE visible
23 Nov 1.7 05:52:07 19° WSW 05:54:33 39° S 05:58:24 10° ESE visible
24 Nov 4.0 04:07:10 11° ESE 04:07:10 11° ESE 04:07:19 10° ESE visible
24 Nov 1.8 05:42:32 24° WSW 05:44:17 35° SSW 05:48:03 10° SE visible
25 Nov 2.0 05:32:57 26° SW 05:34:02 30° SSW 05:37:40 10° SE visible
26 Nov 2.1 05:23:23 25° SSW 05:23:45 26° SSW 05:27:12 10° SE visible
27 Nov 2.5 05:13:50 21° S 05:13:50 21° S 05:16:39 10° SSE visible
28 Nov 3.0 05:04:18 16° S 05:04:18 16° S 05:06:00 10° SSE visible
